Back to catalog

CZ-6A DEB

AlivePO
NORAD 55190·DEBRIS·🇨🇳 China

Launched Nov 11, 2022 from Taiyuan Satellite Launch Center

Loading…

Next Passes (next 24 hours)

TLE

FreshSource: Space-Track

Epoch: Sep 14, 2026, 16:39 UTC

1 55190U 22151VF  26257.69414711  .00012198  00000-0  14734-2 0  9998
2 55190  98.6344 339.9320 0056619 333.2066  26.6223 14.82768349198871

Track CZ-6A DEB in real time with AllMySat

Download on the App Store